This is the latest recevied weather packets stored in our database for station/object K7KAR-2. If no packets are shown the sender has not sent any weather packets the latest 10 day(s).
| Time | Temp. | Humidity | Pressure | Rain* | Wind** | Luminosity | Snow |
|---|---|---|---|---|---|---|---|
| 1778293859 | 19.44° C | 10% | 1008.2 hPa | 0 mm | - | 1 W/m² | - |
| 1778293555 | 20° C | 10% | 1007.9 hPa | 0 mm | - | 3 W/m² | - |
| 1778293253 | 20° C | 10% | 1007.8 hPa | 0 mm | - | 5 W/m² | - |
| 1778292950 | 20° C | 10% | 1007.8 hPa | 0 mm | - | 7 W/m² | - |
| 1778292647 | 20° C | 10% | 1007.9 hPa | 0 mm | - | 10 W/m² | - |
| 1778292345 | 20.56° C | 10% | 1007.8 hPa | 0 mm | - | 13 W/m² | - |
| 1778292042 | 20.56° C | 10% | 1007.9 hPa | 0 mm | - | 16 W/m² | - |
| 1778291741 | 20.56° C | 10% | 1007.8 hPa | 0 mm | - | 19 W/m² | - |
| 1778291438 | 21.11° C | 10% | 1007.7 hPa | 0 mm | - | 23 W/m² | - |
| 1778291134 | 21.11° C | 10% | 1007.7 hPa | 0 mm | - | 29 W/m² | - |
| 1778290831 | 21.11° C | 10% | 1007.7 hPa | 0 mm | - | 32 W/m² | - |
| 1778290528 | 21.11° C | 10% | 1007.8 hPa | 0 mm | - | 37 W/m² | - |
| 1778290223 | 21.11° C | 10% | 1007.8 hPa | 0 mm | - | 42 W/m² | - |
| 1778289920 | 21.11° C | 10% | 1007.8 hPa | 0 mm | - | 45 W/m² | - |
| 1778289617 | 21.11° C | 10% | 1007.5 hPa | 0 mm | - | 53 W/m² | - |
| 1778289315 | 21.11° C | 10% | 1007.7 hPa | 0 mm | - | 62 W/m² | - |
| 1778289012 | 21.67° C | 10% | 1007.8 hPa | 0 mm | - | 69 W/m² | - |
| 1778288710 | 21.67° C | 10% | 1007.6 hPa | 0 mm | - | 73 W/m² | - |
| 1778288405 | 21.67° C | 10% | 1007.6 hPa | 0 mm | - | 76 W/m² | - |
| 1778288104 | 21.67° C | 10% | 1007.8 hPa | 0 mm | - | 78 W/m² | - |
| 1778287798 | 21.67° C | 10% | 1007.8 hPa | 0 mm | - | 85 W/m² | - |
| 1778287495 | 21.67° C | 10% | 1007.5 hPa | 0 mm | - | 93 W/m² | - |
| 1778287193 | 21.67° C | 10% | 1007.5 hPa | 0 mm | - | 101 W/m² | - |
| 1778286891 | 21.67° C | 10% | 1007.7 hPa | 0 mm | - | 104 W/m² | - |
| 1778286587 | 22.22° C | 10% | 1007.9 hPa | 0 mm | - | 110 W/m² | - |
* Rain latest hour (hover to see other rain measurements)
** Current wind speed in m/s (hover to see current wind gust speed)